,,Stat5,,Stat1,,Stat2,,Stat3,,Stat4,,Wind1,,Wind1,
time,status,PA1M_AVG,status,PR1M_SUM,status,RH1M_AVG,status,SR1M_AVG,status,TA1M_AVG,status,W1dAve1m,status,W1sAve1m,
2003-03-05, 00:00:00,VALID,917.336,VALID,0,VALID,79.1434,VALID,-0.0339617,VALID,17.9494,VALID,53,VALID,0.0102163,
2003-03-05, 00:01:00,VALID,917.367,VALID,0,VALID,77.573,VALID,0,VALID,17.9563,VALID,53,VALID,0.0130912,
2003-03-05, 00:02:00,VALID,917.359,VALID,0,VALID,77.3136,VALID,-0.0169808,VALID,17.9886,VALID,53,VALID,0.375,
2003-03-05, 00:03:00,VALID,917.356,VALID,0,VALID,76.9817,VALID,-0.0339617,VALID,18.05,VALID,53,VALID,0.241386,
2003-03-05, 00:04:00,VALID,917.34,VALID,0,VALID,76.529,VALID,-0.0679233,VALID,18.0984,VALID,53,VALID,0,
2003-03-05, 00:05:00,VALID,917.325,VALID,0,VALID,76.323,VALID,-0.0339617,VALID,18.1568,VALID,53,VALID,0.0878378,
2003-03-05, 00:06:00,VALID,917.313,VALID,0,VALID,76.5112,VALID,-0.0169808,VALID,18.1984,VALID,53,VALID,0.278166,
2003-03-05, 00:07:00,VALID,917.292,VALID,0,VALID,76.7909,VALID,-0.0679233,VALID,18.2117,VALID,53,VALID,0.0684622,
2003-03-05, 00:08:00,VALID,917.285,VALID,0,VALID,76.8214,VALID,-0.0339617,VALID,18.1954,VALID,53,VALID,0.000952744,
2003-03-05, 00:09:00,VALID,917.271,VALID,0,VALID,77.1292,VALID,0,VALID,18.1984,VALID,53,VALID,0.0990349,
2003-03-05, 00:10:00,VALID,917.275,VALID,0,VALID,78.0231,VALID,-0.0509425,VALID,18.2147,VALID,53,VALID,0.175465,
2003-03-05, 00:11:00,VALID,917.286,VALID,0,VALID,78.8827,VALID,-0.0339617,VALID,18.1889,VALID,53,VALID,0.046875,
2003-03-05, 00:12:00,VALID,917.298,VALID,0,VALID,79.4931,VALID,-0.0339617,VALID,18.1081,VALID,53,VALID,0.0352618,
2003-03-05, 00:13:00,VALID,917.288,VALID,0,VALID,80.2103,VALID,-0.0339617,VALID,18.0172,VALID,53,VALID,0.189967,
2003-03-05, 00:14:00,VALID,917.278,VALID,0,VALID,80.635,VALID,-0.0169808,VALID,17.9724,VALID,53,VALID,0.220395,
2003-03-05, 00:15:00,VALID,917.259,VALID,0,VALID,80.49,VALID,-0.0339617,VALID,17.9782,VALID,53,VALID,0.268102,
2003-03-05, 00:16:00,VALID,917.234,VALID,0,VALID,80.1174,VALID,-0.0509425,VALID,18.0624,VALID,53,VALID,0.230699,
2003-03-05, 00:17:00,VALID,917.201,VALID,0,VALID,79.7309,VALID,0,VALID,18.1695,VALID,53,VALID,0.103041,
2003-03-05, 00:18:00,VALID,917.179,VALID,0,VALID,79.4855,VALID,-0.0339617,VALID,18.2496,VALID,53,VALID,0,
2003-03-05, 00:19:00,VALID,917.158,VALID,0,VALID,79.6686,VALID,-0.0509425,VALID,18.3149,VALID,53,VALID,0,
2003-03-05, 00:20:00,VALID,917.164,VALID,0,VALID,78.9399,VALID,-0.0169808,VALID,18.3343,VALID,53,VALID,0,
2003-03-05, 00:21:00,VALID,917.169,VALID,0,VALID,79.0188,VALID,-0.0169808,VALID,18.373,VALID,53,VALID,0,
2003-03-05, 00:22:00,VALID,917.151,VALID,0,VALID,79.0213,VALID,-0.0169808,VALID,18.386,VALID,53,VALID,0,
2003-03-05, 00:23:00,VALID,917.15,VALID,0,VALID,79.9407,VALID,-0.0339617,VALID,18.3308,VALID,53,VALID,0,
2003-03-05, 00:24:00,VALID,917.155,VALID,0,VALID,80.0233,VALID,-0.0509425,VALID,18.2048,VALID,53,VALID,0,
2003-03-05, 00:25:00,VALID,917.162,VALID,0,VALID,79.2489,VALID,-0.0509425,VALID,18.1107,VALID,53,VALID,0,
2003-03-05, 00:26:00,VALID,917.172,VALID,0,VALID,78.2889,VALID,0,VALID,18.1208,VALID,53,VALID,0,
2003-03-05, 00:27:00,VALID,917.192,VALID,0,VALID,78.2469,VALID,-0.0169808,VALID,18.1635,VALID,53,VALID,0,
2003-03-05, 00:28:00,VALID,917.183,VALID,0,VALID,78.6691,VALID,0,VALID,18.1402,VALID,53,VALID,0,
2003-03-05, 00:29:00,VALID,917.203,VALID,0,VALID,78.8204,VALID,0,VALID,18.0924,VALID,53,VALID,0,
2003-03-05, 00:30:00,VALID,917.206,VALID,0,VALID,78.5279,VALID,0,VALID,17.9953,VALID,53,VALID,0,
2003-03-05, 00:31:00,VALID,917.2,VALID,0,VALID,79.7856,VALID,-0.0169808,VALID,17.9141,VALID,53,VALID,0,
2003-03-05, 00:32:00,VALID,917.199,VALID,0,VALID,79.1307,VALID,-0.0339617,VALID,17.8271,VALID,53,VALID,0,
2003-03-05, 00:33:00,VALID,917.201,VALID,0,VALID,77.016,VALID,-0.0169808,VALID,17.7625,VALID,53,VALID,0.108108,
2003-03-05, 00:34:00,VALID,917.175,VALID,0,VALID,76.8202,VALID,-0.0509425,VALID,17.7915,VALID,53,VALID,0.387747,
2003-03-05, 00:35:00,VALID,917.176,VALID,0,VALID,76.1996,VALID,0,VALID,17.8301,VALID,55,VALID,0.30366,
2003-03-05, 00:36:00,VALID,917.174,VALID,0,VALID,77.0821,VALID,0,VALID,17.843,VALID,55,VALID,0.262767,
2003-03-05, 00:37:00,VALID,917.178,VALID,0,VALID,77.7624,VALID,-0.0169808,VALID,17.8017,VALID,55,VALID,0.286994,
2003-03-05, 00:38:00,VALID,917.165,VALID,0,VALID,77.0694,VALID,-0.0339617,VALID,17.7269,VALID,55,VALID,0.357686,
2003-03-05, 00:39:00,VALID,917.152,VALID,0,VALID,78.6017,VALID,-0.0169808,VALID,17.7009,VALID,55,VALID,0.244873,
2003-03-05, 00:40:00,VALID,917.143,VALID,0,VALID,79.8593,VALID,-0.0169808,VALID,17.646,VALID,108,VALID,0.225084,
2003-03-05, 00:41:00,VALID,917.129,VALID,0,VALID,79.9407,VALID,-0.0169808,VALID,17.5398,VALID,117,VALID,0.188734,
2003-03-05, 00:42:00,VALID,917.12,VALID,0,VALID,80.8562,VALID,0,VALID,17.4173,VALID,117,VALID,0.10773,
2003-03-05, 00:43:00,VALID,917.116,VALID,0,VALID,80.49,VALID,0,VALID,17.265,VALID,117,VALID,0.211509,
2003-03-05, 00:44:00,VALID,917.111,VALID,0,VALID,79.3634,VALID,0,VALID,17.2136,VALID,117,VALID,0.0586993,
2003-03-05, 00:45:00,VALID,917.091,VALID,0,VALID,78.8115,VALID,-0.0509425,VALID,17.233,VALID,117,VALID,0,
2003-03-05, 00:46:00,VALID,917.08,VALID,0,VALID,78.9298,VALID,-0.0339617,VALID,17.2747,VALID,117,VALID,0,
2003-03-05, 00:47:00,VALID,917.054,VALID,0,VALID,77.2258,VALID,-0.0339617,VALID,17.3305,VALID,117,VALID,0.0253378,
2003-03-05, 00:48:00,VALID,917.033,VALID,0,VALID,76.9054,VALID,-0.0339617,VALID,17.4726,VALID,116,VALID,0.281044,
2003-03-05, 00:49:00,VALID,917.02,VALID,0,VALID,76.3713,VALID,-0.0339617,VALID,17.5721,VALID,116,VALID,0.4044,
2003-03-05, 00:50:00,VALID,916.997,VALID,0,VALID,76.7884,VALID,-0.0339617,VALID,17.6665,VALID,116,VALID,0.431593,
2003-03-05, 00:51:00,VALID,916.971,VALID,0,VALID,76.7744,VALID,-0.0169808,VALID,17.6593,VALID,116,VALID,0.154412,
2003-03-05, 00:52:00,VALID,916.965,VALID,0,VALID,76.4133,VALID,-0.0509425,VALID,17.6464,VALID,116,VALID,0.202703,
2003-03-05, 00:53:00,VALID,916.948,VALID,0,VALID,76.1971,VALID,-0.0509425,VALID,17.6628,VALID,116,VALID,0.152344,
2003-03-05, 00:54:00,VALID,916.934,VALID,0,VALID,75.9707,VALID,0,VALID,17.7052,VALID,116,VALID,0.0105574,
2003-03-05, 00:55:00,VALID,916.906,VALID,0,VALID,76.7451,VALID,-0.0679233,VALID,17.7145,VALID,116,VALID,0,
2003-03-05, 00:56:00,VALID,916.885,VALID,0,VALID,76.941,VALID,-0.0169808,VALID,17.6983,VALID,116,VALID,0.00123355,
2003-03-05, 00:57:00,VALID,916.859,VALID,0,VALID,77.3873,VALID,-0.0169808,VALID,17.6561,VALID,116,VALID,0.140625,
2003-03-05, 00:58:00,VALID,916.824,VALID,0,VALID,77.2347,VALID,-0.0169808,VALID,17.6275,VALID,116,VALID,0.280331,
2003-03-05, 00:59:00,VALID,916.794,VALID,0,VALID,77.7319,VALID,-0.0509425,VALID,17.6018,VALID,116,VALID,0.310389,
2003-03-05, 01:00:00,VALID,916.789,VALID,0,VALID,77.648,VALID,-0.0339617,VALID,17.5659,VALID,116,VALID,0.0123106,
2003-03-05, 01:01:00,VALID,916.775,VALID,0,VALID,77.2411,VALID,-0.0169808,VALID,17.5137,VALID,116,VALID,0.124367,
2003-03-05, 01:02:00,VALID,916.756,VALID,0,VALID,77.3733,VALID,-0.0849042,VALID,17.5174,VALID,116,VALID,0.160362,
2003-03-05, 01:03:00,VALID,916.759,VALID,0,VALID,77.2029,VALID,-0.0339617,VALID,17.5368,VALID,116,VALID,0.202303,
2003-03-05, 01:04:00,VALID,916.769,VALID,0,VALID,77.2958,VALID,-0.0339617,VALID,17.5536,VALID,116,VALID,0.106326,
2003-03-05, 01:05:00,VALID,916.76,VALID,0,VALID,76.5938,VALID,-0.0509425,VALID,17.5306,VALID,116,VALID,0,
2003-03-05, 01:06:00,VALID,916.762,VALID,0,VALID,78.2711,VALID,-0.0509425,VALID,17.5176,VALID,116,VALID,0.000844595,
2003-03-05, 01:07:00,VALID,916.749,VALID,0,VALID,77.1394,VALID,-0.0169808,VALID,17.489,VALID,116,VALID,0.0109863,
2003-03-05, 01:08:00,VALID,916.751,VALID,0,VALID,77.2691,VALID,0,VALID,17.4729,VALID,116,VALID,0.0407517,
2003-03-05, 01:09:00,VALID,916.725,VALID,0,VALID,77.4483,VALID,-0.0339617,VALID,17.4304,VALID,116,VALID,0,
2003-03-05, 01:10:00,VALID,916.709,VALID,0,VALID,77.091,VALID,-0.0169808,VALID,17.3854,VALID,116,VALID,0,
2003-03-05, 01:11:00,VALID,916.69,VALID,0,VALID,77.0503,VALID,-0.0339617,VALID,17.3854,VALID,116,VALID,0,
2003-03-05, 01:12:00,VALID,916.682,VALID,0,VALID,76.9524,VALID,0,VALID,17.3848,VALID,116,VALID,0,
2003-03-05, 01:13:00,VALID,916.668,VALID,0,VALID,76.6994,VALID,-0.0509425,VALID,17.4401,VALID,116,VALID,0,
2003-03-05, 01:14:00,VALID,916.666,VALID,0,VALID,76.5048,VALID,-0.0509425,VALID,17.4856,VALID,116,VALID,0,
2003-03-05, 01:15:00,VALID,916.654,VALID,0,VALID,76.3688,VALID,-0.0339617,VALID,17.5146,VALID,116,VALID,0,
2003-03-05, 01:16:00,VALID,916.664,VALID,0,VALID,76.3764,VALID,-0.0509425,VALID,17.5728,VALID,116,VALID,0,
2003-03-05, 01:17:00,VALID,916.636,VALID,0,VALID,76.5671,VALID,-0.0339617,VALID,17.6505,VALID,116,VALID,0,
2003-03-05, 01:18:00,VALID,916.615,VALID,0,VALID,76.735,VALID,-0.0169808,VALID,17.7054,VALID,116,VALID,0.0139101,
2003-03-05, 01:19:00,VALID,916.593,VALID,0,VALID,78.0206,VALID,-0.0339617,VALID,17.7373,VALID,70,VALID,0.456112,
2003-03-05, 01:20:00,VALID,916.57,VALID,0,VALID,78.6144,VALID,-0.0679233,VALID,17.5956,VALID,49,VALID,0.45587,
2003-03-05, 01:21:00,VALID,916.56,VALID,0,VALID,79.1726,VALID,0.0169808,VALID,17.4427,VALID,46,VALID,0.425049,
2003-03-05, 01:22:00,VALID,916.529,VALID,0,VALID,79.3532,VALID,0.0509425,VALID,17.3908,VALID,46,VALID,0.375633,
2003-03-05, 01:23:00,VALID,916.514,VALID,0,VALID,80.0017,VALID,0.0509425,VALID,17.3264,VALID,46,VALID,0.479852,
2003-03-05, 01:24:00,VALID,916.494,VALID,0,VALID,80.2115,VALID,0.0679233,VALID,17.2355,VALID,9,VALID,0.447368,
2003-03-05, 01:25:00,VALID,916.475,VALID,0,VALID,79.5122,VALID,0,VALID,17.1645,VALID,336,VALID,0.333651,
2003-03-05, 01:26:00,VALID,916.442,VALID,0,VALID,78.3906,VALID,0.0679233,VALID,17.1613,VALID,352,VALID,0.484605,
2003-03-05, 01:27:00,VALID,916.438,VALID,0,VALID,78.6475,VALID,0.0509425,VALID,17.1195,VALID,8,VALID,0.554265,
2003-03-05, 01:28:00,VALID,916.435,VALID,0,VALID,79.1587,VALID,0.0849042,VALID,17.0999,VALID,5,VALID,0.305634,
2003-03-05, 01:29:00,VALID,916.407,VALID,0,VALID,78.0142,VALID,0.0509425,VALID,17.0672,VALID,5,VALID,0.260135,
2003-03-05, 01:30:00,VALID,916.383,VALID,0,VALID,77.1076,VALID,0.0679233,VALID,17.0835,VALID,5,VALID,0.219367,
2003-03-05, 01:31:00,VALID,916.378,VALID,0,VALID,76.8036,VALID,0.0849042,VALID,17.1451,VALID,23,VALID,0.41139,
2003-03-05, 01:32:00,VALID,916.368,VALID,0,VALID,77.3339,VALID,0.0679233,VALID,17.2226,VALID,41,VALID,0.563453,
2003-03-05, 01:33:00,VALID,916.368,VALID,0,VALID,78.3397,VALID,0.0339617,VALID,17.2002,VALID,47,VALID,0.537454,
2003-03-05, 01:34:00,VALID,916.372,VALID,0,VALID,76.8939,VALID,0.0679233,VALID,17.1098,VALID,47,VALID,0.402027,
2003-03-05, 01:35:00,VALID,916.39,VALID,0,VALID,75.9911,VALID,0.0169808,VALID,17.116,VALID,47,VALID,0.448975,
2003-03-05, 01:36:00,VALID,916.385,VALID,0,VALID,74.8199,VALID,-0.0339617,VALID,17.1946,VALID,47,VALID,0.398438,
2003-03-05, 01:37:00,VALID,916.371,VALID,0,VALID,73.6106,VALID,-0.0679233,VALID,17.2849,VALID,47,VALID,0.405839,
2003-03-05, 01:38:00,VALID,916.362,VALID,0,VALID,73.3779,VALID,-0.101885,VALID,17.4431,VALID,47,VALID,0.385485,
2003-03-05, 01:39:00,VALID,916.351,VALID,0,VALID,74.4639,VALID,-0.0679233,VALID,17.5693,VALID,47,VALID,0.310404,
2003-03-05, 01:40:00,VALID,916.347,VALID,0,VALID,75.2358,VALID,-0.0849042,VALID,17.5726,VALID,47,VALID,0.289292,
2003-03-05, 01:41:00,VALID,916.356,VALID,0,VALID,72.8121,VALID,-0.101885,VALID,17.5403,VALID,47,VALID,0.329814,
2003-03-05, 01:42:00,VALID,916.335,VALID,0,VALID,74.3583,VALID,-0.101885,VALID,17.5536,VALID,47,VALID,0.300426,
2003-03-05, 01:43:00,VALID,916.318,VALID,0,VALID,72.6684,VALID,-0.0679233,VALID,17.5375,VALID,47,VALID,0.145904,
2003-03-05, 01:44:00,VALID,916.31,VALID,0,VALID,73.2838,VALID,-0.0849042,VALID,17.531,VALID,47,VALID,0.0988898,
2003-03-05, 01:45:00,VALID,916.296,VALID,0,VALID,71.4476,VALID,-0.0849042,VALID,17.5142,VALID,47,VALID,0.158306,
2003-03-05, 01:46:00,VALID,916.274,VALID,0,VALID,71.4693,VALID,-0.0339617,VALID,17.5568,VALID,47,VALID,0.14596,
2003-03-05, 01:47:00,VALID,916.261,VALID,0,VALID,71.0903,VALID,-0.0679233,VALID,17.5855,VALID,47,VALID,0.170037,
2003-03-05, 01:48:00,VALID,916.248,VALID,0,VALID,72.6201,VALID,-0.0849042,VALID,17.6083,VALID,47,VALID,0.011402,
2003-03-05, 01:49:00,VALID,916.243,VALID,0,VALID,70.9263,VALID,-0.0509425,VALID,17.5891,VALID,47,VALID,0,
2003-03-05, 01:50:00,VALID,916.217,VALID,0,VALID,71.2505,VALID,-0.0339617,VALID,17.5818,VALID,47,VALID,0.0285051,
2003-03-05, 01:51:00,VALID,916.191,VALID,0,VALID,72.3607,VALID,-0.0679233,VALID,17.5982,VALID,47,VALID,0.310238,
2003-03-05, 01:52:00,VALID,916.185,VALID,0,VALID,72.5133,VALID,-0.0509425,VALID,17.6016,VALID,47,VALID,0,
2003-03-05, 01:53:00,VALID,916.167,VALID,0,VALID,72.2589,VALID,-0.101885,VALID,17.6021,VALID,47,VALID,0,
2003-03-05, 01:54:00,VALID,916.162,VALID,0,VALID,72.3467,VALID,-0.101885,VALID,17.5956,VALID,53,VALID,0.0326287,
2003-03-05, 01:55:00,VALID,916.156,VALID,0,VALID,71.2963,VALID,-0.101885,VALID,17.6148,VALID,60,VALID,0,
2003-03-05, 01:56:00,VALID,916.169,VALID,0,VALID,70.246,VALID,-0.0679233,VALID,17.6863,VALID,59,VALID,0,
2003-03-05, 01:57:00,VALID,916.18,VALID,0,VALID,69.2707,VALID,-0.0849042,VALID,17.7991,VALID,59,VALID,0,
2003-03-05, 01:58:00,VALID,916.195,VALID,0,VALID,69.1193,VALID,-0.101885,VALID,17.9341,VALID,59,VALID,0.145354,
2003-03-05, 01:59:00,VALID,916.202,VALID,0,VALID,67.7892,VALID,-0.0849042,VALID,18.0834,VALID,59,VALID,0.232113,
2003-03-05, 02:00:00,VALID,916.198,VALID,0,VALID,67.4014,VALID,-0.0849042,VALID,18.2018,VALID,60,VALID,0.114329,
2003-03-05, 02:01:00,VALID,916.181,VALID,0,VALID,67.7142,VALID,-0.0849042,VALID,18.3128,VALID,60,VALID,0.0558364,
2003-03-05, 02:02:00,VALID,916.16,VALID,0,VALID,69.0201,VALID,-0.101885,VALID,18.3382,VALID,59,VALID,0,
2003-03-05, 02:03:00,VALID,916.137,VALID,0,VALID,67.4904,VALID,-0.0849042,VALID,18.3126,VALID,59,VALID,0,
2003-03-05, 02:04:00,VALID,916.107,VALID,0,VALID,69.717,VALID,-0.101885,VALID,18.3089,VALID,59,VALID,0.365921,
2003-03-05, 02:05:00,VALID,916.115,VALID,0,VALID,69.9217,VALID,-0.0849042,VALID,18.157,VALID,58,VALID,0.332237,
2003-03-05, 02:06:00,VALID,916.108,VALID,0,VALID,70.4622,VALID,0,VALID,17.9953,VALID,39,VALID,0.242599,
2003-03-05, 02:07:00,VALID,916.131,VALID,0,VALID,68.9197,VALID,0.0339617,VALID,17.8947,VALID,10,VALID,0.292302,
2003-03-05, 02:08:00,VALID,916.122,VALID,0,VALID,68.9718,VALID,0.0339617,VALID,17.8979,VALID,10,VALID,0.397748,
2003-03-05, 02:09:00,VALID,916.122,VALID,0,VALID,68.8307,VALID,0.0169808,VALID,17.9099,VALID,12,VALID,0.444046,
2003-03-05, 02:10:00,VALID,916.12,VALID,0,VALID,68.8243,VALID,0.0849042,VALID,17.939,VALID,13,VALID,0.443182,
2003-03-05, 02:11:00,VALID,916.123,VALID,0,VALID,69.0049,VALID,0.0339617,VALID,17.9653,VALID,13,VALID,0.702914,
2003-03-05, 02:12:00,VALID,916.122,VALID,0,VALID,69.7373,VALID,0.0169808,VALID,17.9649,VALID,12,VALID,0.464227,
2003-03-05, 02:13:00,VALID,916.104,VALID,0,VALID,68.4734,VALID,0.0339617,VALID,17.9526,VALID,12,VALID,0.39741,
2003-03-05, 02:14:00,VALID,916.103,VALID,0,VALID,69.0087,VALID,0.0339617,VALID,18.0078,VALID,12,VALID,0.381288,
2003-03-05, 02:15:00,VALID,916.113,VALID,0,VALID,68.0537,VALID,0.0509425,VALID,18.062,VALID,12,VALID,0.363741,
2003-03-05, 02:16:00,VALID,916.093,VALID,0,VALID,68.1249,VALID,0.0169808,VALID,18.1365,VALID,12,VALID,0.216427,
2003-03-05, 02:17:00,VALID,916.079,VALID,0,VALID,67.7816,VALID,0.0339617,VALID,18.1783,VALID,12,VALID,0.261963,
2003-03-05, 02:18:00,VALID,916.058,VALID,0,VALID,68.8752,VALID,0.0509425,VALID,18.1787,VALID,13,VALID,0.478674,
2003-03-05, 02:19:00,VALID,916.047,VALID,0,VALID,69.1702,VALID,0.0339617,VALID,18.0684,VALID,17,VALID,0.469161,
2003-03-05, 02:20:00,VALID,916.04,VALID,0,VALID,68.5204,VALID,0.0509425,VALID,17.9944,VALID,17,VALID,0.304276,
2003-03-05, 02:21:00,VALID,916.04,VALID,0,VALID,68.4441,VALID,0.0169808,VALID,17.9754,VALID,17,VALID,0.35061,
2003-03-05, 02:22:00,VALID,916.025,VALID,0,VALID,68.0868,VALID,-0.0509425,VALID,18.0082,VALID,17,VALID,0.490119,
2003-03-05, 02:23:00,VALID,916.012,VALID,0,VALID,70.1112,VALID,-0.0509425,VALID,18.0537,VALID,18,VALID,0.590372,
2003-03-05, 02:24:00,VALID,916.011,VALID,0,VALID,70.1786,VALID,-0.0849042,VALID,17.9505,VALID,19,VALID,0.408617,
2003-03-05, 02:25:00,VALID,916.002,VALID,0,VALID,69.7971,VALID,-0.101885,VALID,17.8601,VALID,19,VALID,0.553632,
2003-03-05, 02:26:00,VALID,916.005,VALID,0,VALID,70.1989,VALID,-0.0849042,VALID,17.825,VALID,19,VALID,0.576069,
2003-03-05, 02:27:00,VALID,916.003,VALID,0,VALID,70.0273,VALID,-0.0849042,VALID,17.7696,VALID,19,VALID,0.575041,
2003-03-05, 02:28:00,VALID,915.986,VALID,0,VALID,70.5168,VALID,-0.0849042,VALID,17.7692,VALID,19,VALID,0.612805,
2003-03-05, 02:29:00,VALID,915.969,VALID,0,VALID,69.8454,VALID,-0.0679233,VALID,17.7659,VALID,19,VALID,0.683594,
2003-03-05, 02:30:00,VALID,915.927,VALID,0,VALID,70.1735,VALID,-0.0849042,VALID,17.8215,VALID,28,VALID,0.683699,
2003-03-05, 02:31:00,VALID,915.91,VALID,0,VALID,70.0947,VALID,-0.0679233,VALID,17.8178,VALID,29,VALID,0.47168,
2003-03-05, 02:32:00,VALID,915.899,VALID,0,VALID,72.1852,VALID,-0.101885,VALID,17.8372,VALID,29,VALID,0.330236,
2003-03-05, 02:33:00,VALID,915.897,VALID,0,VALID,72.6913,VALID,-0.0509425,VALID,17.786,VALID,23,VALID,0.107319,
2003-03-05, 02:34:00,VALID,915.901,VALID,0,VALID,73.0677,VALID,-0.0679233,VALID,17.7149,VALID,19,VALID,0,
2003-03-05, 02:35:00,VALID,915.897,VALID,0,VALID,73.0956,VALID,-0.0849042,VALID,17.6471,VALID,19,VALID,0.0114329,
2003-03-05, 02:36:00,VALID,915.901,VALID,0,VALID,71.8698,VALID,-4.62593e-018,VALID,17.5523,VALID,28,VALID,0.170037,
2003-03-05, 02:37:00,VALID,915.906,VALID,0,VALID,72.1216,VALID,0.0509425,VALID,17.529,VALID,71,VALID,0.462627,
2003-03-05, 02:38:00,VALID,915.92,VALID,0,VALID,70.5156,VALID,0.0849042,VALID,17.5844,VALID,71,VALID,0.325521,
2003-03-05, 02:39:00,VALID,915.938,VALID,0,VALID,69.6051,VALID,0.0849042,VALID,17.7482,VALID,71,VALID,0.35853,
2003-03-05, 02:40:00,VALID,915.939,VALID,0,VALID,69.0965,VALID,0.0679233,VALID,17.9621,VALID,71,VALID,0.134252,
2003-03-05, 02:41:00,VALID,915.93,VALID,0,VALID,68.6056,VALID,0.0679233,VALID,18.1008,VALID,71,VALID,0,
2003-03-05, 02:42:00,VALID,915.94,VALID,0,VALID,68.261,VALID,0.0509425,VALID,18.1944,VALID,71,VALID,0.0127668,
2003-03-05, 02:43:00,VALID,915.905,VALID,0,VALID,67.9189,VALID,0.0679233,VALID,18.2946,VALID,71,VALID,0.0372243,
2003-03-05, 02:44:00,VALID,915.872,VALID,0,VALID,67.6316,VALID,0.0679233,VALID,18.3689,VALID,71,VALID,0.0101351,
2003-03-05, 02:45:00,VALID,915.853,VALID,0,VALID,67.1,VALID,0.0679233,VALID,18.4395,VALID,71,VALID,0.145996,
2003-03-05, 02:46:00,VALID,915.823,VALID,0,VALID,66.9118,VALID,0.101885,VALID,18.5108,VALID,71,VALID,0.120355,
2003-03-05, 02:47:00,VALID,915.836,VALID,0,VALID,68.0245,VALID,0.0679233,VALID,18.53,VALID,71,VALID,0,
2003-03-05, 02:48:00,VALID,915.847,VALID,0,VALID,68.851,VALID,0.0509425,VALID,18.5009,VALID,71,VALID,0.0978618,
2003-03-05, 02:49:00,VALID,915.846,VALID,0,VALID,70.5639,VALID,0.0849042,VALID,18.4044,VALID,71,VALID,0.127477,
2003-03-05, 02:50:00,VALID,915.842,VALID,0,VALID,71.1488,VALID,0.0849042,VALID,18.2362,VALID,71,VALID,0.383042,
2003-03-05, 02:51:00,VALID,915.846,VALID,0,VALID,72.025,VALID,0,VALID,18.0497,VALID,71,VALID,0.0388514,
2003-03-05, 02:52:00,VALID,915.842,VALID,0,VALID,71.2874,VALID,-0.0339617,VALID,17.8889,VALID,71,VALID,0.243371,
2003-03-05, 02:53:00,VALID,915.84,VALID,0,VALID,71.0496,VALID,-0.0509425,VALID,17.7664,VALID,71,VALID,0.0869932,
2003-03-05, 02:54:00,VALID,915.832,VALID,0,VALID,69.6966,VALID,-0.0169808,VALID,17.6792,VALID,71,VALID,0,
2003-03-05, 02:55:00,VALID,915.812,VALID,0,VALID,69.8836,VALID,-0.101885,VALID,17.6955,VALID,71,VALID,0,
2003-03-05, 02:56:00,VALID,915.789,VALID,0,VALID,71.0649,VALID,-0.0339617,VALID,17.7246,VALID,71,VALID,0,
2003-03-05, 02:57:00,VALID,915.773,VALID,0,VALID,70.0362,VALID,-0.0339617,VALID,17.7149,VALID,71,VALID,0,
2003-03-05, 02:58:00,VALID,915.736,VALID,0,VALID,69.0329,VALID,-0.0679233,VALID,17.7954,VALID,71,VALID,0.00929054,
2003-03-05, 02:59:00,VALID,915.732,VALID,0,VALID,69.5123,VALID,-0.0679233,VALID,17.9637,VALID,58,VALID,0.141602,
2003-03-05, 03:00:00,VALID,915.742,VALID,0,VALID,69.5771,VALID,-0.0849042,VALID,18.0477,VALID,50,VALID,0.429688,
2003-03-05, 03:01:00,VALID,915.746,VALID,0,VALID,71.1679,VALID,-0.0509425,VALID,18.0643,VALID,49,VALID,0.056949,
2003-03-05, 03:02:00,VALID,915.753,VALID,0,VALID,70.5664,VALID,-0.0509425,VALID,17.9731,VALID,49,VALID,0.0300164,
2003-03-05, 03:03:00,VALID,915.764,VALID,0,VALID,70.5423,VALID,0,VALID,17.8854,VALID,49,VALID,0.156822,
2003-03-05, 03:04:00,VALID,915.777,VALID,0,VALID,70.4787,VALID,-0.0169808,VALID,17.8469,VALID,49,VALID,0,
2003-03-05, 03:05:00,VALID,915.773,VALID,0,VALID,70.6097,VALID,-0.0509425,VALID,17.8148,VALID,49,VALID,0.0285051,
2003-03-05, 03:06:00,VALID,915.749,VALID,0,VALID,69.8187,VALID,0.0169808,VALID,17.807,VALID,49,VALID,0.34233,
2003-03-05, 03:07:00,VALID,915.733,VALID,0,VALID,71.8965,VALID,0.0509425,VALID,17.8751,VALID,49,VALID,0.370566,
2003-03-05, 03:08:00,VALID,915.72,VALID,0,VALID,74.6292,VALID,0.0679233,VALID,17.8331,VALID,49,VALID,0.284334,
2003-03-05, 03:09:00,VALID,915.717,VALID,0,VALID,75.2116,VALID,0.0509425,VALID,17.6907,VALID,49,VALID,0.24116,
2003-03-05, 03:10:00,VALID,915.718,VALID,0,VALID,73.9743,VALID,0.0509425,VALID,17.439,VALID,49,VALID,0.390203,
2003-03-05, 03:11:00,VALID,915.718,VALID,0,VALID,73.7047,VALID,0.0679233,VALID,17.3553,VALID,49,VALID,0.342601,
2003-03-05, 03:12:00,VALID,915.731,VALID,0,VALID,73.0728,VALID,0.0509425,VALID,17.2775,VALID,49,VALID,0.274493,
2003-03-05, 03:13:00,VALID,915.708,VALID,0,VALID,72.4675,VALID,0.101885,VALID,17.2928,VALID,49,VALID,0.314209,
2003-03-05, 03:14:00,VALID,915.703,VALID,0,VALID,71.6282,VALID,0.0849042,VALID,17.3735,VALID,49,VALID,0.226774,
2003-03-05, 03:15:00,VALID,915.713,VALID,0,VALID,72.1051,VALID,0.0339617,VALID,17.4715,VALID,49,VALID,0.167558,
2003-03-05, 03:16:00,VALID,915.72,VALID,0,VALID,72.868,VALID,0.0679233,VALID,17.487,VALID,49,VALID,0.0108964,
2003-03-05, 03:17:00,VALID,915.7,VALID,0,VALID,73.3029,VALID,0.0849042,VALID,17.4259,VALID,49,VALID,0.172828,
2003-03-05, 03:18:00,VALID,915.694,VALID,0,VALID,73.2215,VALID,0.0679233,VALID,17.3615,VALID,49,VALID,0.172105,
2003-03-05, 03:19:00,VALID,915.664,VALID,0,VALID,72.8312,VALID,0.0339617,VALID,17.31,VALID,49,VALID,0.147171,
2003-03-05, 03:20:00,VALID,915.652,VALID,0,VALID,73.5102,VALID,0.0169808,VALID,17.2775,VALID,49,VALID,0,
2003-03-05, 03:21:00,VALID,915.658,VALID,0,VALID,74.3952,VALID,0.0509425,VALID,17.2295,VALID,49,VALID,0,
2003-03-05, 03:22:00,VALID,915.65,VALID,0,VALID,74.2515,VALID,-0.0169808,VALID,17.1686,VALID,49,VALID,0,
2003-03-05, 03:23:00,VALID,915.642,VALID,0,VALID,73.6526,VALID,-0.0679233,VALID,17.1141,VALID,49,VALID,0,
2003-03-05, 03:24:00,VALID,915.627,VALID,0,VALID,72.4637,VALID,-0.0169808,VALID,17.0945,VALID,49,VALID,0.0310595,
2003-03-05, 03:25:00,VALID,915.625,VALID,0,VALID,72.7243,VALID,-0.0339617,VALID,17.1785,VALID,49,VALID,0.00390625,
2003-03-05, 03:26:00,VALID,915.606,VALID,0,VALID,72.5031,VALID,-0.0339617,VALID,17.2433,VALID,49,VALID,0.198902,
2003-03-05, 03:27:00,VALID,915.592,VALID,0,VALID,73.9552,VALID,-0.0169808,VALID,17.2724,VALID,49,VALID,0.273682,
2003-03-05, 03:28:00,VALID,915.581,VALID,0,VALID,72.1661,VALID,-0.0339617,VALID,17.2239,VALID,49,VALID,0.40815,
2003-03-05, 03:29:00,VALID,915.565,VALID,0,VALID,73.5127,VALID,0,VALID,17.2495,VALID,49,VALID,0.263775,
2003-03-05, 03:30:00,VALID,915.575,VALID,0,VALID,73.8739,VALID,-0.0679233,VALID,17.2468,VALID,49,VALID,0.301809,
2003-03-05, 03:31:00,VALID,915.583,VALID,0,VALID,73.734,VALID,-0.0169808,VALID,17.1979,VALID,49,VALID,0.295541,
2003-03-05, 03:32:00,VALID,915.588,VALID,0,VALID,73.8433,VALID,-0.0169808,VALID,17.1688,VALID,49,VALID,0.276195,
2003-03-05, 03:33:00,VALID,915.587,VALID,0,VALID,73.247,VALID,-0.0679233,VALID,17.1496,VALID,49,VALID,0.347551,
2003-03-05, 03:34:00,VALID,915.577,VALID,0,VALID,72.6035,VALID,-0.0339617,VALID,17.1363,VALID,49,VALID,0.271307,
2003-03-05, 03:35:00,VALID,915.568,VALID,0,VALID,71.8355,VALID,-0.0169808,VALID,17.2403,VALID,49,VALID,0.33826,